Theta_e
315 321 324 318 318 320 319 317 321 316 314 315 318 319 320 319 312 313 315 316 320 324 325 328 330 331 332 332 333 334 333 333 331 331 330 329 329 329 329 330 330 328 326 325
314 324 323 320 318 314 313 313 317 315 310 313 318 315 316 316 315 313 314 315 315 318 322 325 328 330 330 331 332 333 333 333 332 331 330 330 330 330 330 330 329 328 326 325
321 320 314 317 317 316 312 315 315 318 310 310 311 315 314 313 312 311 311 312 313 314 315 317 324 328 330 330 331 331 332 333 333 332 331 331 331 331 330 330 330 328 327 325
318 313 313 316 318 319 319 310 313 311 312 318 309 322 318 313 313 311 312 312 312 312 310 311 314 320 327 329 330 331 331 331 332 332 332 332 331 331 330 330 330 329 328 327
317 310 313 315 315 314 319 310 310 310 312 311 312 313 316 310 312 312 313 313 313 313 313 312 311 312 315 322 328 329 330 330 330 331 332 332 331 331 331 330 330 330 329 327
308 307 311 314 312 313 307 309 308 308 310 315 315 312 316 315 314 314 313 313 313 313 313 312 310 309 309 309 314 322 327 329 330 330 331 331 331 331 331 331 330 330 329 328
307 308 306 308 310 308 310 314 314 316 316 317 307 309 314 312 312 311 312 313 312 311 311 309 308 307 307 306 306 308 317 323 327 328 329 330 330 331 331 331 329 329 329 328
319 317 308 307 312 311 312 316 317 321 317 317 305 312 313 311 311 312 309 310 308 307 307 308 308 306 304 304 304 304 307 313 319 323 326 327 329 329 330 329 328 328 328 328
320 315 306 306 306 310 312 313 312 309 304 312 312 310 309 310 310 309 309 308 309 309 307 307 307 306 305 305 305 304 305 311 317 321 323 325 326 327 328 328 328 328 327 327
313 313 307 306 307 306 310 310 311 311 317 317 312 309 312 311 310 309 308 309 309 308 308 307 308 307 307 308 308 306 306 307 311 319 321 323 324 325 326 326 326 327 327 327
313 311 308 307 308 310 309 310 310 313 311 316 314 314 310 312 309 309 309 308 307 308 307 307 308 308 309 310 310 310 309 309 311 314 317 320 321 322 324 324 326 326 325 324
309 310 310 309 307 307 310 311 311 313 312 309 309 314 306 308 309 306 308 306 305 305 306 307 308 308 309 311 311 311 311 310 310 311 313 317 321 322 323 323 323 323 323 322
310 314 316 311 309 307 308 308 310 310 309 316 318 315 305 304 305 307 307 307 305 305 305 306 307 308 309 310 311 312 311 312 311 311 310 310 309 308 308 308 311 319 321 320
310 311 317 314 311 309 309 308 308 310 317 313 311 312 308 307 307 307 307 307 306 305 306 307 307 308 308 308 310 311 311 311 312 312 311 310 310 311 311 309 309 311 314 316
309 314 311 308 311 310 311 309 308 308 310 311 312 311 310 310 308 308 307 307 306 305 303 305 307 308 307 307 307 309 311 311 311 310 310 310 312 312 312 312 313 314 315 316
307 316 311 308 307 310 312 310 309 310 310 310 310 310 306 309 307 306 306 306 307 307 305 303 303 305 306 306 307 307 309 309 310 309 309 310 310 311 313 313 313 314 314 314
311 311 313 315 309 311 314 311 310 310 310 310 310 310 308 306 306 308 309 305 306 306 307 306 304 304 304 305 305 306 307 308 308 308 308 309 310 311 312 312 312 312 312 312
310 312 316 312 311 315 313 311 310 310 310 309 309 309 309 309 308 308 309 309 307 304 305 305 306 305 304 303 304 305 305 306 307 307 307 308 309 310 310 310 310 310 310 310
310 312 312 314 314 313 310 306 308 309 310 309 309 308 308 305 305 307 305 307 307 307 307 305 303 303 304 304 304 303 304 304 305 306 306 307 307 308 308 308 308 308 308 307
308 311 316 308 313 312 310 306 304 307 310 309 308 308 308 306 309 310 310 307 307 306 301 300 301 302 302 303 303 303 303 302 303 304 305 305 306 307 308 308 307 307 306 306
311 311 312 311 314 312 307 304 306 312 311 309 307 308 308 307 309 309 305 302 300 300 300 298 298 298 299 300 300 301 301 301 303 303 304 305 306 306 306 306 305 304 302 301
311 313 313 313 313 312 303 303 310 310 307 305 303 304 305 306 304 302 301 301 300 299 298 296 297 297 297 297 297 298 299 301 301 301 302 304 305 305 305 305 303 301 300 298
312 311 314 312 312 306 302 307 304 303 306 305 305 303 301 301 301 301 301 299 297 295 293 293 294 295 294 295 296 296 298 298 299 299 300 301 303 303 303 303 301 298 297 295
306 305 311 312 309 307 305 302 302 302 304 303 304 304 302 303 301 298 297 295 294 291 291 290 292 291 290 292 294 294 296 296 296 297 296 298 301 301 301 300 300 298 294 291
309 306 308 307 303 304 305 303 303 301 299 298 297 298 300 300 297 296 294 292 291 288 288 289 289 288 287 290 291 293 294 294 295 295 293 295 296 297 296 296 297 296 296 296
302 305 310 312 306 307 306 302 300 300 298 297 296 295 292 295 294 292 290 288 287 286 287 286 286 286 287 289 289 290 292 293 294 293 292 292 293 292 292 291 290 291 292 292
Wind_Speed
13 10 16 18 14 4 10 7 10 4 3 4 13 16 17 14 10 11 14 13 14 17 16 18 22 24 23 24 25 26 24 25 24 25 23 21 20 20 20 20 20 20 22 21
9 20 14 15 13 5 3 4 8 5 1 5 12 18 17 17 17 15 15 15 16 15 13 16 20 23 26 27 28 27 30 28 28 26 27 20 21 22 22 21 21 23 24 24
19 13 18 16 16 14 6 9 7 6 0 5 8 16 17 13 18 14 13 14 14 16 15 15 21 26 25 29 31 34 33 29 29 29 23 22 16 16 17 21 22 24 23 26
11 12 21 18 20 21 12 12 10 5 4 7 2 8 8 6 16 14 18 17 17 16 12 10 19 25 30 36 32 32 31 31 32 30 28 27 25 24 25 23 26 26 23 22
12 17 20 20 22 19 6 11 9 3 6 4 9 7 4 4 10 17 19 19 19 17 16 17 18 25 30 29 31 31 31 32 34 32 31 30 30 27 24 21 21 21 22 24
4 1 13 15 11 18 16 11 5 2 2 9 14 10 8 10 15 16 18 21 20 19 17 15 12 15 19 20 29 30 29 32 31 31 32 33 31 29 22 23 21 21 20 21
5 8 4 8 14 9 10 16 4 5 6 7 2 7 13 7 15 15 13 12 14 14 15 13 12 15 17 19 25 27 26 28 28 30 31 33 32 28 27 24 22 19 17 21
15 9 16 10 10 12 21 18 7 9 7 4 2 9 4 10 17 15 13 12 9 6 8 9 7 9 12 14 17 18 21 23 25 25 28 26 29 27 25 23 21 20 20 20
16 8 7 8 6 16 16 16 5 5 2 1 6 5 10 16 15 9 12 10 13 12 10 9 5 6 6 8 10 15 18 19 19 20 19 21 23 24 24 21 21 20 19 18
9 7 8 4 6 1 15 12 8 4 6 6 5 5 9 5 12 8 8 10 12 12 12 8 6 6 5 5 6 9 13 18 19 20 18 20 21 22 22 22 23 22 22 19
13 5 6 8 12 18 9 14 6 7 4 3 2 4 8 13 7 6 9 9 9 9 8 8 8 8 8 8 9 9 10 12 16 19 19 22 21 21 21 23 23 21 19 18
5 5 8 22 4 3 13 14 14 6 7 3 1 5 4 7 7 3 7 6 4 4 5 8 9 10 11 11 10 10 11 12 14 14 16 17 20 23 23 23 21 20 21 21
10 3 6 5 5 2 16 10 22 9 1 7 5 5 5 1 5 5 5 5 4 4 6 7 7 9 10 11 11 11 11 11 12 13 13 13 14 15 16 19 22 23 24 22
8 4 5 10 6 8 8 13 13 13 4 6 15 15 1 3 6 3 5 6 4 4 5 7 8 8 10 11 12 12 13 13 15 14 13 11 11 11 12 15 18 19 20 22
10 6 3 3 6 10 7 12 11 15 26 12 31 18 16 11 3 2 3 3 3 5 6 8 8 8 12 13 13 14 14 16 17 14 12 12 15 14 14 15 16 17 19 21
2 4 9 2 2 4 5 14 22 27 22 26 26 28 0 10 11 8 10 6 6 6 7 9 9 10 14 17 18 17 16 17 18 15 15 15 17 17 18 18 19 20 20 22
8 5 5 16 5 6 3 27 22 23 26 26 25 17 13 8 10 15 14 12 11 6 7 8 11 12 16 16 18 19 18 19 20 19 19 21 22 22 21 20 21 22 23 22
13 8 3 4 5 9 13 19 24 25 22 29 30 13 9 14 13 12 12 13 13 11 11 11 11 14 13 15 18 19 21 22 25 25 25 25 26 25 25 25 24 23 23 22
16 9 5 7 11 8 19 7 15 14 28 21 24 20 17 3 4 13 10 13 14 15 12 11 11 14 18 16 18 20 22 27 28 30 30 31 30 29 27 27 26 26 25 24
6 12 4 5 14 17 8 10 7 8 24 17 18 18 15 11 12 18 19 20 22 12 4 5 9 11 15 17 18 22 26 27 32 34 32 32 33 31 31 29 28 27 25 24
9 8 19 8 10 11 2 10 15 12 9 11 16 19 16 13 18 7 2 2 2 1 8 5 7 11 14 14 16 22 22 28 32 29 30 31 32 33 32 30 29 26 24 22
13 13 9 8 11 20 4 6 22 7 2 3 2 4 7 16 4 2 3 3 4 5 5 8 3 2 1 4 12 20 22 24 23 22 26 29 31 32 30 27 25 24 23 23
9 8 7 11 11 2 6 2 1 2 4 5 4 3 4 4 7 3 1 3 5 6 4 6 5 3 4 3 4 10 12 13 15 17 23 26 29 27 26 25 25 24 24 25
4 3 4 4 5 4 6 4 3 4 3 3 2 5 6 5 3 4 3 5 4 6 7 7 5 7 7 7 4 3 4 7 12 16 19 24 27 27 26 26 27 28 27 24
4 12 9 2 1 1 6 9 4 2 4 5 4 2 5 7 5 4 4 5 4 5 6 8 9 10 9 8 8 4 2 5 9 11 14 18 22 24 23 24 26 28 28 31
1 1 9 7 5 3 0 7 7 7 5 5 5 3 7 6 9 7 7 5 5 9 11 12 13 14 12 11 10 9 5 4 7 10 12 14 15 17 16 17 16 19 22 25
Wind_Direction
183 183 194 174 181 187 184 161 240 224 187 223 237 252 253 248 227 242 240 219 220 225 226 218 211 209 208 209 211 213 211 213 208 208 207 211 216 220 221 223 223 223 229 234
172 213 193 180 180 141 134 124 241 271 174 221 264 261 259 251 237 235 235 234 229 228 210 212 211 209 210 210 214 215 218 213 212 215 211 212 220 226 225 225 225 225 229 235
186 184 161 165 182 184 195 195 212 259 158 236 287 272 250 241 231 236 241 242 241 236 225 211 205 210 211 216 215 215 217 217 214 215 215 220 224 226 222 224 225 226 227 231
195 170 168 170 182 184 190 197 218 214 229 253 245 281 245 265 236 219 233 230 233 231 228 231 215 206 209 218 216 217 216 216 216 212 212 214 214 219 225 227 229 230 228 229
177 166 172 185 186 185 192 167 185 176 242 280 228 263 247 262 257 239 229 231 227 228 229 232 214 215 218 220 215 216 216 219 215 212 213 215 222 224 225 225 228 229 234 234
116 169 179 189 170 183 137 120 96 123 260 256 245 230 252 241 248 250 240 233 230 230 231 238 229 220 229 228 224 220 218 220 214 211 215 217 219 224 221 219 224 226 230 235
153 169 114 150 139 168 180 162 156 221 218 247 88 240 256 245 249 235 250 248 233 233 233 238 234 224 233 226 228 226 223 222 216 215 217 218 220 222 222 221 222 222 223 228
172 198 180 172 189 173 187 179 184 188 199 200 140 239 234 249 256 266 265 266 254 259 237 229 233 236 239 239 232 227 224 225 219 216 218 218 221 219 224 223 221 221 226 230
181 172 164 181 146 156 182 209 161 105 22 224 211 252 260 254 261 268 265 254 251 236 224 225 225 219 226 225 219 220 220 223 219 215 215 215 216 217 218 220 222 224 231 237
183 128 188 136 119 161 188 150 187 229 192 228 212 251 234 207 233 265 270 252 254 232 230 215 200 196 171 179 188 203 211 214 215 212 205 211 214 214 216 221 224 235 240 240
169 117 156 158 202 181 159 192 192 189 221 237 258 227 219 234 170 271 290 268 285 234 215 190 172 177 160 159 176 183 182 197 204 208 210 208 213 217 221 226 231 232 234 230
150 106 154 190 52 257 197 195 191 190 194 255 18 256 176 213 204 272 312 290 295 254 198 178 169 176 174 177 174 178 182 185 192 189 196 204 213 218 219 223 223 223 223 222
170 125 115 151 231 211 205 190 205 204 86 198 185 244 44 180 225 270 279 292 268 206 180 170 173 191 193 190 185 184 184 190 186 187 191 194 203 212 218 221 220 218 215 214
128 133 150 187 204 133 191 199 202 202 225 186 235 235 350 214 235 233 231 250 254 238 206 196 191 200 206 198 191 193 189 188 186 183 182 181 191 199 199 201 203 205 207 208
174 161 106 91 160 163 160 181 178 197 226 210 246 243 232 251 243 225 263 233 224 225 217 212 218 214 204 205 199 200 196 193 190 188 183 188 190 191 197 195 191 193 197 200
246 175 175 92 94 135 163 185 193 210 216 231 248 257 101 241 225 230 233 224 228 222 233 223 218 223 216 206 202 202 202 198 198 192 192 194 197 197 197 193 190 191 192 195
167 119 134 217 141 98 287 212 204 217 219 227 236 239 191 208 222 238 246 233 236 248 229 232 223 227 225 214 204 207 203 204 205 203 201 203 202 197 195 194 193 192 193 193
155 139 123 138 139 214 260 184 212 221 227 226 244 236 227 220 219 227 242 250 255 209 229 233 227 224 234 232 226 215 211 209 212 212 211 206 206 202 198 196 194 194 194 194
188 160 151 169 204 283 272 197 199 198 244 231 239 242 237 219 306 256 246 254 247 246 240 218 224 243 249 240 225 218 214 217 216 220 213 207 205 204 199 198 197 198 197 195
146 192 152 164 212 227 301 168 131 96 265 217 222 231 216 180 239 247 228 233 242 253 169 200 213 231 238 231 219 212 215 211 216 218 217 210 204 204 202 201 197 197 197 199
169 177 207 193 223 252 240 136 141 186 252 209 205 219 208 202 228 269 277 99 65 104 125 148 198 214 224 230 218 218 216 215 225 222 219 213 206 203 202 197 200 200 199 199
172 173 198 200 225 250 119 152 186 218 183 142 103 172 185 216 222 197 107 75 65 57 41 68 69 86 53 239 225 223 222 232 228 222 215 209 204 201 199 200 199 200 200 200
191 197 167 197 216 74 191 219 155 170 179 172 170 188 209 209 217 213 134 47 49 43 53 55 58 359 26 17 256 258 260 241 225 211 206 202 200 201 202 199 198 197 202 202
242 157 187 133 206 201 183 199 219 177 201 126 175 157 149 143 128 102 112 75 56 49 47 39 66 81 57 34 25 277 261 222 210 204 201 199 198 197 200 203 205 204 199 191
183 158 177 249 202 193 247 214 195 81 76 84 40 358 103 117 103 110 78 66 70 79 72 76 82 78 63 57 55 56 125 186 192 195 192 191 196 197 197 205 209 211 215 213
289 121 186 215 178 201 263 164 145 139 132 132 134 91 52 87 111 97 81 53 60 60 56 58 63 69 61 62 62 64 81 130 167 166 173 182 186 190 196 199 204 212 221 220